Home > Weather > Fort Worth > Past weeks

Flag for USA Past Weather in Fort Worth, Texas, USA — Yesterday and Last 2 Weeks

Now
77 °F

Clear.


Feels Like: 79 °F
Forecast: 74 / 94 °F
Wind: 6 mph from South

Location: Meacham International Airport

Current Time: Aug 25, 2016 at 5:10:46 AM

Latest Report: Aug 25, 2016 at 4:53 AM


Visibility: 10 mi

Pressure: 30.02 "Hg

Humidity: 82%

Dew Point: 71 °F

Location of Fort WorthLocation

Past Weather in Fort Worth — Graph

°F

Fort Worth Temperature Yesterday

Maximum temperature yesterday: 95 °F (at 2:53 PM)
Minimum temperature yesterday: 76 °F (at 5:53 AM)
Average temperature yesterday: 85 °F

High & Low Weather Summary for the Past Weeks

 TemperatureHumidityPressure
High107 °F (Aug 12, 1:53 PM)91% (Aug 18, 4:53 AM)30.12 "Hg (Aug 18, 4:53 AM)
Low72 °F (Aug 15, 11:53 PM)26% (Aug 11, 3:53 PM)29.69 "Hg (Aug 12, 4:53 PM)
Average83 °F67%29.95 "Hg
* Reported Aug 10 3:53 AM — Aug 25 3:53 AM, Fort Worth, Weather by CustomWeather, © 2016

Note: Actual official high and low records may vary slightly from our data, if they occured in-between our weather recording intervals... More about our weather records

Advertising

Fort Worth Weather History for the Previous 24 Hours

Scroll right to see more
 ConditionsComfort  
Time TempWeatherWind HumidityBarometerVisibility
3:53 AM
Thu, Aug 25
80 °FClear.9 mph74%30.01 "Hg10 mi
2:53 AM81 °FClear.7 mph72%30.01 "Hg10 mi
1:53 AM82 °FClear.12 mph65%30.01 "Hg10 mi
12:53 AM82 °FClear.13 mph65%30.01 "Hg10 mi
11:53 PM
Wed, Aug 24
83 °FClear.13 mph63%30.01 "Hg10 mi
10:53 PM84 °FClear.14 mph63%30.02 "Hg10 mi
9:53 PM86 °FClear.13 mph57%30.01 "Hg10 mi
8:53 PM87 °FSunny.16 mph55%29.99 "Hg10 mi
7:53 PM90 °FSunny.15 mph50%29.97 "Hg10 mi
6:53 PM92 °FSunny.17 mph46%29.97 "Hg10 mi
5:53 PM93 °FSunny.17 mph44%29.98 "Hg10 mi
4:53 PM95 °FPassing clouds.16 mph43%29.98 "Hg10 mi
3:53 PM95 °FSunny.13 mph41%29.99 "Hg10 mi
2:53 PM95 °FSunny.15 mph43%30.01 "Hg10 mi
1:53 PM94 °FPassing clouds.10 mph48%30.03 "Hg10 mi
12:53 PM92 °FSunny.14 mph47%30.05 "Hg10 mi
11:53 AM90 °FSunny.13 mph50%30.07 "Hg10 mi
10:53 AM87 °FSunny.14 mph59%30.08 "Hg10 mi
9:53 AM81 °FPassing clouds.10 mph69%30.09 "Hg10 mi
8:53 AM77 °FPartly sunny.15 mph79%30.08 "Hg10 mi
7:53 AM77 °FClear.16 mph79%30.05 "Hg10 mi
6:53 AM76 °FClear.9 mph80%30.04 "Hg10 mi
5:53 AM76 °FClear.9 mph82%30.03 "Hg10 mi
Weather by CustomWeather, © 2016

See weather overviewHow to use our weather pages